Flag for Poland Weather past 2 weeks in Wroclaw, Poland

36 °F

Passing clouds.

Feels Like: 32 °F
Forecast: 40 / 47 °F
Wind: 5 mph from Southwest

Location: Wroclaw Ii

Current Time: Nov 29, 2015 at 5:37:25 AM

Latest Report: Nov 29, 2015 at 4:30 AM

Visibility: N/A

Pressure: 29.95 "Hg

Humidity: 81%

Dew point: 30 °F

Location of WroclawLocation

Historic Weather in Wroclaw — Graph


Wroclaw temperature yesterday

Maximum temperature yesterday: 41 °F (at 9:30 PM)
Minimum temperature yesterday: 27 °F (at 1:00 AM)
Average temperature yesterday: 33 °F

Past Weeks' High & Low Weather Summary

High61 °F (Nov 18, 6:00 AM)94% (Nov 15, 1:30 PM)30.27 "Hg (Nov 15, 1:30 PM)
Low25 °F (Nov 23, 4:30 AM)47% (Nov 14, 12:00 PM)29.39 "Hg (Nov 21, 4:00 AM)
Average42 °F81%29.86 "Hg
* Reported Nov 14 3:00 AM — Nov 29 3:30 AM, Wroclaw, Weather by CustomWeather, © 2015

Note: Actual official high and low records may vary slightly from our data, if they occured in-between our weather recording intervals... More about our weather records


Wroclaw weather history for previous 24 hours

Time TempWeatherWind HumidityBarometerVisibility
3:30 AM
Sun, Nov 29
37 °FPassing clouds.6 mph75%29.98 "HgN/A
3:00 AM37 °FClear.8 mph81%29.98 "Hg10 mi
2:30 AM37 °FClear.7 mph81%29.98 "Hg10 mi
2:00 AM39 °FClear.8 mph75%29.98 "Hg10 mi
1:30 AM39 °FPassing clouds.9 mph75%29.98 "HgN/A
1:00 AM37 °FPassing clouds.7 mph87%29.98 "HgN/A
12:30 AM37 °FClear.9 mph87%29.98 "Hg10 mi
12:00 AM37 °FPassing clouds.9 mph87%29.98 "HgN/A
11:00 PM
Sat, Nov 28
39 °FPartly cloudy.12 mph87%29.98 "HgN/A
10:30 PM41 °FPassing clouds.16 mph81%29.95 "HgN/A
9:30 PM41 °FPassing clouds.15 mph87%29.92 "HgN/A
9:00 PM39 °FPassing clouds.14 mph87%29.92 "HgN/A
8:30 PM39 °FPassing clouds.14 mph87%29.89 "HgN/A
8:00 PM37 °FLight rain. Passing clouds.14 mph93%29.89 "HgN/A
7:30 PM37 °FLight rain. Passing clouds.14 mph87%29.86 "HgN/A
7:00 PM37 °FLight rain. Passing clouds.16 mph93%29.86 "HgN/A
6:30 PM37 °FLight rain. Passing clouds.14 mph87%29.86 "HgN/A
6:00 PM37 °FLight rain. Passing clouds.13 mph87%29.83 "HgN/A
5:30 PM37 °FLight rain. Passing clouds.8 mph81%29.83 "HgN/A
5:00 PM37 °FPassing clouds.6 mph75%29.83 "HgN/A
4:30 PM37 °FPassing clouds.6 mph75%29.83 "HgN/A
4:00 PM37 °FPassing clouds.6 mph70%29.80 "HgN/A
3:30 PM37 °FPartly sunny.7 mph70%29.80 "HgN/A
3:00 PM36 °FFog.2 mph87%29.80 "Hg3 mi
2:30 PM34 °FFog.1 mph93%29.80 "Hg3 mi
2:00 PM36 °FClear.6 mph87%29.80 "Hg4 mi
1:30 PM34 °FPassing clouds.3 mph93%29.77 "Hg4 mi
1:00 PM32 °FIce fog.6 mph93%29.77 "Hg1 mi
12:30 PM32 °FIce fog.5 mph87%29.77 "Hg1 mi
12:00 PM32 °FIce fog.6 mph87%29.77 "Hg1 mi
11:30 AM32 °FIce fog.6 mph87%29.77 "Hg0 mi
11:00 AM30 °FIce fog.5 mph93%29.80 "Hg0 mi
10:30 AM30 °FIce fog.6 mph86%29.80 "Hg1 mi
10:00 AM28 °FIce fog.5 mph93%29.80 "Hg0 mi
9:30 AM28 °FIce fog.3 mph93%29.80 "Hg0 mi
9:00 AM28 °FIce fog.3 mph86%29.83 "Hg0 mi
7:30 AM27 °FIce fog.1 mph93%29.83 "Hg1 mi
7:00 AM27 °FSleet. Ice fog.2 mph93%29.83 "Hg1 mi
6:30 AM28 °FIce fog.2 mph86%29.83 "Hg2 mi
6:00 AM28 °FIce fog.3 mph86%29.86 "Hg2 mi
5:30 AM30 °FIce fog.7 mph86%29.86 "Hg2 mi
5:00 AM30 °FIce fog.5 mph93%29.86 "Hg3 mi
Weather by CustomWeather, © 2015

See weather overviewHow to use our weather pages